星链-35712(STARLINK-35712)

导读

STARLINK-35712是美国SpaceX公司星链星座的一颗低轨通信卫星,于2025年10月28日发射入轨。它运行在近地轨道,是星链全球卫星互联网星座的组成部分,旨在为全球偏远、缺乏地面基础设施的区域提供高速、低延迟的宽带互联网服务,同时也可支持商业航运、航空移动通信等场景,进一步扩展星链星座的服务覆盖与网络能力。

Basic Information
目录编号:
66215
目录名称:
STARLINK-35712
国际标识:
2025-244K
轨道中心:
EARTH
卫星名称:
星链-35712
卫星全名:
星链-35712(STARLINK-35712)
卫星状态:
在轨 (已飞行311 天)
发射日期:
2025-10-28 UTC
国别 :
美国 (US)
星等 :
--
Orbit Information
数据来源 国际轨道数据
星历时间: 2026-09-04T09:11:30+0800
11小时前
查看轨道信息
半长轴: 6840.832km
偏心率: 0.000105
轨道倾角: 53.158°
近地点辐角 82.981°
升交点赤经 118.867°
平近点角 277.132°
近地点: 461.976km
远地点: 463.414km
周期: 93.848分钟
每日圈数: 15.344031
Detailed Information
固有亮度:
5
最大亮度:
2.5
卫星平台:
Starlink V1.0
覆盖范围:
全球
运营商:
太空探索技术公司
运营商所在国:
美国
制造商(研发单位):
太空探索技术公司
制造商所在国:
美国
使用方式:
暂无
Satellite Introduction
Starlink 计划是 SpaceX 推出的全球卫星互联网项目,通过发射低轨道卫星,为全球尤其是偏远地区提供高速、低延迟的互联网服务。自 2019 年起,Starlink 已部署数千颗卫星,旨在缩小全球数字鸿沟,推动互联网普及。该项目还为军事、航空等行业提供通信支持,带来广泛经济效益。
2D Orbit Map
3D Orbit Map
Orbit Altitude Analysis Chart
Orbit Inclination Analysis Chart
Orbit Comprehensive Analysis Chart
View Comprehensive Chart
Conjunction Data List
Event ID Objects TCA Miss Dist (km) Collision Risk Probability Collision Risk Index (CRI) Action
CDM_260827-201506-487506-621521
REAL (64875)
2026-08-27T
20:15:47+0000
0.814 km
远距离
5.319388E-5 中风险 0.7
CDM_260905-151805-850206-621521
OBJECT A (58502)
2026-09-05T
15:18:09+0000
1.751 km
极远距离
4.074769E-6 低风险 0.47
CDM_260903-082405-364006-621521
2026-09-03T
08:24:40+0000
1.454 km
极远距离
2.110764E-6 低风险 0.41
CDM_260906-114405-287506-621521
2026-09-06T
11:44:35+0000
2.205 km
极远距离
1.995888E-6 低风险 0.41
CDM_260905-235805-420206-621521
2026-09-05T
23:58:12+0000
2.933 km
极远距离
1.20251E-6 低风险 0.37
CDM_260903-073705-364006-621521
2026-09-03T
07:37:46+0000
1.827 km
极远距离
1.118774E-6 低风险 0.36
CDM_260906-073204-940906-621521
2026-09-06T
07:32:04+0000
2.410 km
极远距离
6.049726E-7 极低风险 0.31